ECHOSTAR 14

Last updated on Sat Aug 15 2026 00:02:58 GMT+0000 (Coordinated Universal Time)

1 36499U 10010A 26226.54439596 -.00000015 00000+0 00000+0 0 9991 2 36499 0.0454 265.5175 0002088 217.7486 276.7831 1.00269358 47133
UTC large
Height (km)
Speed (km/s)
/
Latitude / Longitude
Inclination (degrees)
Orbital Period (minutes)
Azimuth
Elevation
Range (km)
Doppler Factor

Next 0 passes for location: London (51.5072 / 0.1276)

No passes found over London.
ECHOSTAR 14